Vaasa Airport, Finland

1:17 AM EEST on October 19, 2017 (GMT +0300)
Vaasa

Weather History for EFVA - February, 2013

Change the Weather History Date:

Thursday, February 14, 2013

  Actual Average Record
Temperature  
Mean Temperature 30 °F -  
Max Temperature 33 °F - - ()
Min Temperature 26 °F - - ()
Degree Days  
Heating Degree Days 36    
Moisture  
Dew Point 30 °F    
Average Humidity 97    
Maximum Humidity 100    
Minimum Humidity 93    
Precipitation  
Precipitation 0.00 in 0.03 in - ()
Sea Level Pressure  
Sea Level Pressure 30.41 in    
Wind  
Wind Speed 5 mph ()    
Max Wind Speed 9 mph    
Max Gust Speed -    
Visibility 5.5 miles    
Events Rain , Snow    
T = Trace of Precipitation, MM = Missing Value Source: Averaged Metar Reports

Daily Weather History Graph

Daily Weather History Graph

Search for Another Location

Airport or City:

Trip Planner

Search our weather history database for the weather conditions in past years. The results will help you decide how hot, cold, wet, or windy it might be!

Date:

Astronomy

Feb. 14, 2013 Rise Set
Actual Time 8:26 AM EET 5:09 PM EET
Civil Twilight 7:36 AM EET 5:58 PM EET
Nautical Twilight 6:43 AM EET 6:52 PM EET
Astronomical Twilight 5:50 AM EET 7:45 PM EET
Moon 8:37 AM EET (2/14) 11:48 PM EET (2/14)
Length of Visible Light 10h 21m
Length of Day
8h 42m
Waxing Crescent, 19% of the Moon is Illuminated
Feb 14
Waxing Crescent
Feb 17
First Quarter
Feb 25
Full
Mar 4
Last Quarter
Mar 11
New

Hourly Weather History & Observations

Time (EET) Temp. Windchill Dew Point Humidity Pressure Visibility Wind Dir Wind Speed Gust Speed Precip Events Conditions
12:20 AM 26.6 °F 22.6 °F 26.6 °F 100% 30.48 in - SSE 3.5 mph - N/A   Clear
12:50 AM 28.4 °F 24.6 °F 28.4 °F 100% 30.48 in 6.2 mi SE 3.5 mph - N/A   Mostly Cloudy
1:20 AM 26.6 °F 22.6 °F 26.6 °F 100% 30.48 in - SSE 3.5 mph - N/A   Clear
1:50 AM 26.6 °F 22.6 °F 26.6 °F 100% 30.48 in - SE 3.5 mph - N/A   Clear
2:20 AM 26.6 °F - 26.6 °F 100% 30.48 in 6.2 mi SE 2.3 mph - N/A   Overcast
2:50 AM 26.6 °F 22.6 °F 26.6 °F 100% 30.48 in 6.2 mi SE 3.5 mph - N/A   Overcast
3:20 AM 26.6 °F 21.2 °F 26.6 °F 100% 30.48 in 6.2 mi SE 4.6 mph - N/A   Unknown
3:50 AM 28.4 °F 21.2 °F 28.4 °F 100% 30.48 in 3.7 mi SSE 6.9 mph - N/A Snow Light Snow
4:20 AM 28.4 °F 21.2 °F 28.4 °F 100% 30.48 in 5.6 mi SSE 6.9 mph - N/A Snow Light Snow
4:50 AM 28.4 °F 22.2 °F 28.4 °F 100% 30.48 in 3.1 mi SSE 5.8 mph - N/A Snow Light Snow
5:20 AM 28.4 °F 24.6 °F 28.4 °F 100% 30.48 in 2.5 mi SE 3.5 mph - N/A Snow Light Snow
5:50 AM 28.4 °F 23.3 °F 28.4 °F 100% 30.45 in 3.1 mi ESE 4.6 mph - N/A Snow Light Snow
6:20 AM 28.4 °F 23.3 °F 28.4 °F 100% 30.45 in 4.3 mi ESE 4.6 mph - N/A Snow Light Snow
6:50 AM 28.4 °F - 28.4 °F 100% 30.45 in 5.6 mi Variable 2.3 mph - N/A Snow Light Snow Grains
7:20 AM 28.4 °F - 28.4 °F 100% 30.45 in 5.6 mi Variable 2.3 mph - N/A   Overcast
7:50 AM 28.4 °F 24.6 °F 28.4 °F 100% 30.42 in 5.6 mi ESE 3.5 mph - N/A   Overcast
8:20 AM 28.4 °F 23.3 °F 28.4 °F 100% 30.42 in 3.7 mi SE 4.6 mph - N/A   Overcast
8:50 AM 30.2 °F 24.3 °F 30.2 °F 100% 30.42 in 4.3 mi SE 5.8 mph - N/A   Overcast
9:20 AM 30.2 °F 23.4 °F 30.2 °F 100% 30.42 in 3.7 mi SE 6.9 mph - N/A   Overcast
9:50 AM 30.2 °F 23.4 °F 30.2 °F 100% 30.42 in 1.8 mi SE 6.9 mph - N/A   Overcast
10:20 AM 32.0 °F 24.8 °F 32.0 °F 100% 30.42 in - SE 8.1 mph - N/A   Overcast
10:50 AM 32.0 °F 24.8 °F 32.0 °F 100% 30.42 in - SE 8.1 mph - N/A   Overcast
11:20 AM 32.0 °F 24.8 °F 32.0 °F 100% 30.42 in 4.3 mi SE 8.1 mph - N/A   Overcast
11:50 AM 32.0 °F 24.2 °F 32.0 °F 100% 30.42 in 6.2 mi SSE 9.2 mph - N/A   Overcast
12:20 PM 32.0 °F 24.2 °F 32.0 °F 100% 30.42 in 6.2 mi SSE 9.2 mph - N/A   Overcast
12:50 PM 33.8 °F 26.4 °F 32.0 °F 93% 30.42 in 6.2 mi South 9.2 mph - N/A   Overcast
1:20 PM 32.0 °F 24.8 °F 32.0 °F 100% 30.39 in - SSE 8.1 mph - N/A Snow Light Snow Grains
1:50 PM 33.8 °F 27.0 °F 32.0 °F 93% 30.39 in 6.2 mi SSE 8.1 mph - N/A Snow Light Snow Grains
2:20 PM 33.8 °F 27.7 °F 32.0 °F 93% 30.39 in 6.2 mi SSE 6.9 mph - N/A Snow Light Snow Grains
2:50 PM 33.8 °F 27.0 °F 32.0 °F 93% 30.39 in 6.2 mi SSE 8.1 mph - N/A   Overcast
3:20 PM 33.8 °F 27.0 °F 32.0 °F 93% 30.39 in 6.2 mi SSE 8.1 mph - N/A   Overcast
3:50 PM 33.8 °F 27.0 °F 32.0 °F 93% 30.39 in 6.2 mi SSE 8.1 mph - N/A Snow Light Snow Grains
4:20 PM 33.8 °F 27.0 °F 32.0 °F 93% 30.36 in 6.2 mi SSE 8.1 mph - N/A   Overcast
4:50 PM 33.8 °F 27.7 °F 32.0 °F 93% 30.36 in 6.2 mi SSE 6.9 mph - N/A Rain Light Rain Showers
5:20 PM 33.8 °F 27.7 °F 32.0 °F 93% 30.36 in 5.6 mi SSE 6.9 mph - N/A Rain Light Rain Showers
5:50 PM 33.8 °F 27.7 °F 32.0 °F 93% 30.36 in 6.2 mi SSE 6.9 mph - N/A Snow Light Snow Grains
6:20 PM 33.8 °F 27.7 °F 32.0 °F 93% 30.36 in 6.2 mi SSE 6.9 mph - N/A Rain Light Rain
6:50 PM 33.8 °F 27.7 °F 32.0 °F 93% 30.36 in 6.2 mi SE 6.9 mph - N/A Rain Light Rain
7:20 PM 33.8 °F 27.7 °F 32.0 °F 93% 30.36 in 6.2 mi SSE 6.9 mph - N/A Snow Light Snow
7:50 PM 33.8 °F 27.0 °F 33.8 °F 100% 30.36 in 6.2 mi SSE 8.1 mph - N/A Snow Light Snow
8:20 PM 33.8 °F 26.4 °F 33.8 °F 100% 30.36 in 6.2 mi South 9.2 mph - N/A Snow Light Snow
8:50 PM 33.8 °F 26.4 °F 32.0 °F 93% 30.36 in 6.2 mi South 9.2 mph - N/A Snow Light Snow
9:20 PM 33.8 °F 26.4 °F 32.0 °F 93% 30.33 in 6.2 mi South 9.2 mph - N/A Snow Light Snow
9:50 PM 33.8 °F 27.0 °F 32.0 °F 93% 30.36 in 6.2 mi South 8.1 mph - N/A Snow Light Snow Grains
10:20 PM 33.8 °F 27.0 °F 32.0 °F 93% 30.36 in 6.2 mi South 8.1 mph - N/A   Overcast
10:50 PM 33.8 °F 27.0 °F 32.0 °F 93% 30.33 in 6.2 mi South 8.1 mph - N/A   Overcast
11:20 PM 33.8 °F 26.4 °F 32.0 °F 93% 30.33 in 6.2 mi South 9.2 mph - N/A   Overcast
11:50 PM 32.0 °F 24.2 °F 32.0 °F 100% 30.33 in 6.2 mi South 9.2 mph - N/A   Overcast